User: anonymous   Login
Location: Betz
(49.1556°N, 2.9558°E)
Time: 17:01:42
(UTC+00:00)
Language:

Cosmos 1943 - Orbit

View from above orbital plane
View from above orbital plane
View from above satellite
View from above satellite

Ground track
Ground track

The orbit data is extracted from the following two-line orbital elements,

1 19119U 88039A   19315.89693509 -.00000221 +00000-0 -89415-4 0  9995
2 19119 071.0049 058.4833 0010906 175.4816 322.9274 14.15144169625999
Epoch (UTC): 11 November 2019 21:31:35
Eccentricity: 0.0010906
inclination: 71.0049°
perigee height: 834 km
apogee height: 849 km
right ascension of ascending node: 58.4833°
argument of perigee: 175.4816°
revolutions per day: 14.15144169
mean anomaly at epoch: 322.9274°
orbit number at epoch: 62599

The dashed part of the orbit path shows where the satellite is in the earth's shadow,  

DLR